GFSMW_con_mucape_225.txt.gz
CAPE
0 0 0 0 205 520 407 606 368 369 91 94 92 78 116 75 74 49 39 25 20 1 0 0 0 0 0 0 0 0 0 0 0 0 0 0 0 2 73 196 272 280 332
0 0 0 0 0 160 547 772 792 533 205 183 111 105 103 108 110 103 54 43 19 30 0 0 0 0 0 0 0 0 0 0 15 14 21 40 234 58 157 223 275 357 296
0 0 0 0 0 0 19 450 1003 936 417 325 256 271 241 215 179 189 148 109 57 29 16 0 5 0 0 0 0 0 4 0 11 14 71 103 142 345 92 106 137 160 170
0 0 0 0 0 0 0 0 364 967 666 504 246 281 321 250 191 125 144 145 165 102 15 42 7 13 7 6 10 16 19 4 24 10 31 197 127 253 504 167 147 199 180
0 0 0 0 0 0 0 0 0 336 688 634 569 405 477 600 571 562 124 132 158 240 151 75 60 56 49 54 65 195 330 130 76 133 187 62 68 164 154 275 150 91 80
0 0 0 0 0 0 0 0 0 5 498 648 708 613 570 690 740 655 450 290 208 284 232 164 169 158 164 238 299 435 609 642 460 411 458 275 121 97 179 124 118 62 77
0 0 0 0 0 0 0 0 0 38 565 829 739 755 638 787 908 848 976 585 488 404 404 392 425 444 537 619 739 856 926 846 715 588 459 451 521 242 271 235 250 216 214
0 0 0 0 0 0 0 0 0 0 391 845 867 833 810 762 824 1003 1113 926 883 681 640 724 754 802 829 934 1007 1120 1127 786 611 571 569 425 418 380 378 454 325 279 313
0 0 0 0 0 0 0 0 0 0 2 863 1071 1077 1060 957 975 1135 997 1032 950 919 913 1001 1054 1086 1200 1350 1275 1154 1025 832 647 523 467 635 342 340 395 435 292 333 234
0 0 0 0 0 0 0 0 0 0 0 666 1082 1222 1324 1210 1219 1051 938 1023 1006 1048 1121 1148 1213 1342 1541 1516 1373 1097 1024 850 563 850 941 889 455 421 353 345 323 403 260
0 0 0 0 0 0 0 0 0 0 54 742 1040 1175 1298 1220 1069 969 1095 1114 1111 1146 1166 1228 1270 1446 1513 1553 1357 1046 995 960 574 800 1082 892 865 526 255 245 256 241 132
0 0 0 0 0 0 0 0 0 0 0 317 610 718 799 839 893 963 1026 1102 1107 1137 1186 1167 1347 1517 1453 1323 1019 860 881 886 698 612 579 590 337 287 234 190 153 116 73
0 0 0 0 0 0 0 0 0 0 0 10 122 321 437 705 912 978 989 841 779 806 983 1255 1320 1034 895 866 616 461 422 417 403 383 443 343 337 310 177 154 103 96 114
0 0 0 0 0 0 8 5 0 0 62 67 84 305 734 720 390 82 114 291 665 1015 1115 1113 995 656 630 628 569 523 349 408 393 198 198 222 289 115 86 76 78 63 69
0 0 0 0 0 0 56 65 22 28 157 374 427 362 181 102 151 337 451 659 835 820 528 195 330 624 457 247 242 118 118 146 168 190 101 195 130 26 128 98 28 41 69
0 0 0 0 0 0 61 93 169 181 306 320 246 206 201 293 379 364 246 658 422 78 152 414 294 80 10 20 2 45 85 56 100 43 77 111 18 32 63 18 1 43 22
0 0 0 0 0 0 5 126 152 289 333 312 189 45 25 79 117 168 353 228 47 234 130 77 28 37 9 8 0 1 30 17 37 90 71 64 36 27 21 15 0 8 19
0 0 0 0 0 0 0 51 119 108 284 296 208 76 68 197 226 80 253 312 101 64 154 208 5 2 11 18 8 0 41 32 34 83 18 53 10 10 24 11 26 4 0
0 0 0 0 0 0 0 0 48 120 105 246 389 313 233 125 82 111 76 95 112 29 122 153 18 2 2 0 3 2 6 53 36 17 20 13 4 11 18 4 4 0 0
0 0 0 0 0 0 0 0 8 83 119 144 168 367 465 316 118 57 113 140 122 140 169 29 2 1 3 41 7 5 4 6 8 3 4 0 0 3 4 4 5 0 0
0 0 0 0 0 0 0 0 1 19 47 125 116 138 277 441 224 65 147 163 112 208 21 6 0 7 2 5 5 1 1 2 2 0 0 1 4 4 1 4 3 3 0
0 0 0 0 0 0 0 0 0 0 5 53 130 175 213 449 514 308 166 120 176 120 97 75 52 8 4 0 5 0 0 0 0 3 1 0 0 0 0 0 0 1 0
0 0 0 0 0 0 0 0 0 0 0 14 119 155 187 317 518 516 353 287 209 134 146 110 74 40 17 0 0 0 0 0 0 3 0 6 1 0 0 0 0 1 0
0 0 0 0 0 0 0 0 0 0 0 0 20 55 76 111 278 412 466 406 294 231 135 129 107 71 30 0 0 0 0 0 0 0 1 0 0 0 0 4 0 0 0
0 0 0 0 0 0 0 0 0 0 1 1 0 2 11 65 105 193 307 390 312 214 190 189 101 81 74 0 2 12 7 0 0 3 0 0 0 0 0 0 0 0 0
0 0 0 0 0 0 0 0 0 0 0 0 0 0 0 7 74 181 279 401 378 303 193 117 92 61 7 1 0 1 0 0 0 0 0 0 0 0 0 0 0 0 0

GFSMW_con_mucape_231.txt.gz
CAPE
22 205 238 255 260 187 119 316 942 1407 1189 1158 1312 1240 1382 1415 1294 895 1099 1103 1087 1154 940 482 361 417 110 133 341 429 412 150 161 16 16 0 113 81 0 0 23 15 32
0 0 82 244 479 389 772 811 895 1484 1360 1193 1193 1140 1125 1281 1075 1224 1266 1234 1218 1377 1151 880 441 308 153 424 509 414 207 175 211 60 51 32 132 170 286 473 620 566 159
0 0 0 10 133 434 1096 888 1529 1797 1648 1467 1418 1308 1294 1393 1128 1312 1352 1334 1301 1349 1433 1213 963 679 440 388 611 668 585 275 323 436 103 46 62 234 717 1538 1105 983 407
0 0 0 0 0 0 223 987 1312 1756 2267 2261 1780 1751 1495 1436 1434 1565 1480 1542 1525 1442 1432 1487 1358 1249 876 635 804 677 750 696 414 551 308 505 479 151 397 1032 1537 1417 1160
0 0 0 0 0 0 0 136 181 772 1799 2513 2436 2294 2177 1971 1922 1883 1966 1898 1895 1606 1473 1567 1551 1437 1397 1147 924 940 1009 925 682 533 696 821 765 881 519 556 1076 961 913
0 0 0 0 0 0 0 96 166 15 213 2034 2820 2579 2627 2366 2082 2198 2045 2056 1927 2011 1717 1566 1642 1630 1522 1514 1368 1222 1462 1176 1086 914 926 740 867 792 833 911 983 1055 971
0 0 0 0 0 0 0 1 4 16 27 686 2420 2844 2647 2775 2499 2466 2325 2291 2100 2011 2036 1854 1748 1696 1733 1666 1520 1596 1454 1583 1231 1360 1122 1111 1237 1184 769 1164 1081 890 1032
0 0 0 0 0 0 0 0 0 0 21 197 1300 2701 2741 2484 2676 2379 2350 2350 2197 2157 2226 2043 1917 1879 1726 1719 1697 1527 1593 1576 1644 1541 1518 1468 1491 1344 1402 1156 821 508 596
0 0 0 0 0 0 0 0 0 0 0 3 566 2170 2631 2503 2355 2486 2413 2245 2484 2052 2203 2123 1900 1878 1729 1757 1678 1538 1556 1548 1693 1785 1747 1364 1422 1432 1151 1206 776 533 564
0 0 0 0 0 0 0 1 13 0 0 21 242 625 2012 2388 2311 2396 2211 2263 2529 2313 2068 2280 2097 1895 1894 1874 1809 1651 1560 1422 1394 1548 1573 1387 1639 1044 1787 922 810 575 672
0 0 0 0 0 0 0 0 1 56 146 369 99 648 1180 1738 2021 2131 2155 2230 2447 2437 2234 2307 2337 2185 2226 2267 1784 1443 1358 1329 1641 1515 1682 1662 1018 1114 650 833 1033 1230 654
0 0 0 0 0 0 0 0 0 39 195 300 211 376 499 1381 1805 1926 1984 2124 2262 2368 2384 2314 2427 2508 2512 2626 1846 1537 1709 1385 1588 1478 1787 1015 975 1319 946 1006 1233 786 685
0 0 0 0 0 0 0 0 0 0 161 453 428 335 528 991 1592 1827 1990 1975 2136 2270 2399 2454 2662 2672 2498 1888 1724 1891 1706 1447 2037 1305 1063 1103 1262 775 695 880 774 371 402
0 0 0 0 0 0 0 0 0 0 60 156 409 417 436 813 1546 1960 2168 2137 2291 2365 2494 2685 2715 2678 2309 1655 2081 1589 1707 2111 1582 1644 1059 818 823 285 393 484 325 330 382
19 0 0 0 0 0 0 0 0 0 0 101 319 531 410 606 1214 1945 2152 2318 2483 2470 2751 2776 2617 2479 1774 1787 1932 2114 2032 1626 1335 982 546 201 508 217 206 211 174 151 57
17 29 0 0 0 0 0 0 0 0 0 24 272 685 673 488 825 1599 2028 2129 2205 2745 2703 2558 2358 1735 1261 1668 1557 1594 1471 1060 827 462 150 156 153 134 87 78 168 189 193
4 14 32 0 0 0 0 0 0 0 0 0 98 466 1052 863 893 1163 1377 1655 1946 2002 2299 1756 1351 1151 1359 1252 1168 1240 1004 674 254 134 136 74 126 145 47 37 16 8 15
3 0 0 1 0 0 0 0 0 0 0 0 7 239 601 919 662 719 784 1543 1775 2002 1637 1051 1007 608 649 887 868 989 695 152 96 94 79 82 29 21 7 107 5 5 42
27 17 0 0 0 0 0 0 0 0 0 0 0 73 604 558 789 1015 981 1141 1423 1229 1034 660 466 584 699 739 622 444 138 103 124 85 36 4 66 114 76 107 0 2 9
45 0 0 0 0 0 0 0 0 0 0 0 0 25 395 737 669 622 725 823 808 698 819 923 612 714 477 293 428 241 181 158 75 3 52 24 21 0 0 0 0 0 0
0 0 0 0 0 0 0 0 0 0 0 0 0 0 0 205 823 583 298 349 398 317 570 727 570 351 295 341 261 220 143 19 2 0 55 36 24 0 0 0 0 0 0
8 9 4 5 6 0 0 0 0 0 0 0 0 0 0 66 338 533 227 277 244 255 340 514 347 347 230 205 92 59 19 0 5 5 8 4 0 0 0 0 0 0 0
5 3 6 2 1 0 0 0 0 0 0 0 0 0 0 9 241 392 507 365 358 185 351 440 240 307 198 126 18 1 7 0 0 0 0 0 0 0 0 0 0 0 0
0 0 0 1 6 3 0 2 0 0 0 0 0 0 0 10 271 228 323 367 373 192 314 397 361 312 178 95 34 8 19 0 6 1 2 26 1 0 0 0 0 0 0
0 0 1 2 0 0 0 0 0 0 0 0 0 0 0 43 157 91 84 129 470 555 410 515 412 318 145 75 16 0 1 1 11 9 7 25 3 3 0 0 0 0 0
0 0 0 0 0 0 0 0 0 4 2 0 0 4 23 116 37 31 41 59 133 283 327 394 445 510 229 92 19 10 58 82 20 38 49 78 25 6 0 0 0 0 0

GFSMW_con_mucape_237.txt.gz
CAPE
0 539 451 236 255 445 674 621 567 819 809 836 595 571 915 499 370 269 225 83 80 48 5 23 57 19 21 19 26 39 30 36 38 20 34 25 10 0 0 0 0 0 0
0 98 591 416 157 272 579 697 571 737 944 841 908 570 589 806 604 611 428 366 199 140 42 4 22 40 2 9 0 8 26 29 18 18 18 7 2 5 0 5 0 0 0
0 0 428 514 358 122 378 668 692 648 962 929 937 889 705 721 817 770 757 472 499 334 180 63 24 20 22 3 5 0 0 5 32 34 6 1 0 0 0 0 0 0 7
0 0 2 561 490 236 227 519 613 604 865 1044 848 955 810 801 792 685 735 655 545 551 381 187 110 47 19 10 0 0 0 0 0 20 31 8 6 13 74 136 76 154 203
0 0 0 82 585 406 235 351 484 521 615 892 919 889 858 749 771 775 710 800 670 644 527 384 303 215 98 28 4 0 0 0 0 0 0 3 1 0 0 12 3 292 275
0 0 0 0 97 271 353 294 407 523 516 637 817 818 816 815 710 726 843 817 852 768 695 588 491 390 304 192 67 10 0 0 4 0 0 1 3 16 11 21 22 0 11
0 0 0 0 0 263 513 276 447 548 609 526 638 705 718 773 693 647 677 830 787 783 831 728 631 569 515 413 295 188 57 17 6 15 5 0 37 36 33 47 29 114 243
0 0 0 0 0 0 50 732 513 505 728 717 625 612 667 607 618 634 674 709 739 800 863 834 732 669 648 659 554 465 367 240 147 61 43 22 1 5 173 215 234 291 401
0 0 0 0 0 0 0 0 0 0 182 885 973 898 948 912 859 742 752 844 928 914 975 1038 981 884 773 745 801 736 646 511 388 291 186 166 121 75 107 219 402 503 443
0 0 0 0 0 0 0 0 0 1 0 2 257 1075 1491 1576 1553 1586 1533 1383 1210 1289 1295 1293 1278 1219 1115 999 875 886 902 784 666 620 533 398 379 429 534 553 521 638 577
0 0 0 0 0 0 0 1 0 0 0 0 2 0 0 0 85 1426 1875 1917 1763 1619 1609 1658 1673 1577 1510 1408 1244 1088 1027 1002 931 840 785 701 780 775 636 715 912 945 1092
0 0 0 0 0 0 0 0 0 0 3 0 3 0 0 0 0 38 1605 2085 2146 2082 1940 1754 1673 1820 1906 1764 1570 1446 1241 1134 1084 1007 888 966 870 971 943 889 812 1565 1173
0 0 0 0 0 0 0 0 0 4 41 129 100 76 216 406 421 308 197 984 2025 2241 2061 1828 1753 1717 1897 1901 1780 1673 1445 1268 1163 1080 900 1050 1045 915 871 1200 1665 1536 1445
0 17 0 0 0 0 0 0 0 0 7 14 10 6 58 211 415 535 454 218 681 1462 1839 1791 1752 1718 1787 1876 1828 1711 1566 1360 1217 1176 823 1442 1379 1327 1471 1678 1704 1667 796
0 0 0 0 0 0 0 0 0 0 0 0 0 0 13 107 346 672 575 493 389 545 1448 1628 1620 1669 1772 1858 1889 1788 1647 1416 1262 1192 1281 1667 1890 1538 1748 1792 1638 1414 835
0 0 0 0 0 0 0 0 0 0 0 0 0 0 0 5 159 498 783 750 728 1183 991 1362 1641 1631 1710 1826 1935 2001 1960 1813 1514 1049 1483 1648 2090 1645 1723 1509 1120 891 917
0 0 0 0 0 0 0 0 0 0 0 0 0 0 0 0 1 305 803 998 869 956 1189 1520 1695 1696 1643 1648 1871 2051 2118 1978 1798 1248 1643 2059 2157 1836 1728 1180 1208 414 262
0 0 0 0 0 0 0 0 0 0 0 0 0 0 0 0 0 76 571 881 940 789 738 1011 1449 1672 1751 1744 1842 2112 2075 2009 1934 1457 1874 2038 1829 1688 1644 1316 754 178 108
0 0 0 0 0 0 0 0 0 0 0 0 0 0 0 0 0 0 143 533 842 778 720 779 1118 1459 1628 1963 2022 1840 1492 1622 1962 1718 1903 1749 1803 1634 1464 987 262 76 73
0 0 0 0 0 0 0 0 0 0 0 0 0 0 0 0 0 0 0 70 457 789 789 706 730 1021 1258 1553 1565 1566 1395 1372 1472 1623 1585 1505 1522 1730 1175 368 122 78 54
0 0 0 0 0 0 0 0 0 0 0 0 0 0 0 0 0 0 0 0 144 610 797 680 518 456 670 935 1110 1227 1284 1413 1261 1296 1504 1005 1431 1394 599 148 109 55 34
0 0 0 0 0 0 0 0 0 0 0 0 0 0 0 0 0 0 0 0 107 553 512 340 289 283 213 404 664 835 987 762 403 1086 994 870 1129 843 265 124 18 7 2
0 0 0 0 0 0 0 0 0 0 0 0 0 0 0 0 0 0 0 13 244 435 408 60 50 111 214 200 404 489 460 547 625 909 834 988 732 705 188 117 6 0 0
0 0 0 0 0 0 0 0 0 0 0 0 0 0 0 0 0 0 4 38 170 320 288 279 140 2 23 39 65 492 312 404 573 704 766 733 654 315 189 80 9 2 0
0 0 0 0 0 0 0 0 0 0 0 0 0 0 0 0 0 0 7 258 220 201 144 97 16 3 5 2 16 54 292 523 705 709 733 784 396 258 181 41 6 0 7
0 0 0 0 0 0 0 0 0 0 0 0 0 0 0 0 0 0 131 485 265 184 44 2 3 2 4 4 64 224 311 302 486 284 194 303 411 234 126 38 5 26 13

GFSMW_con_mucape_243.txt.gz
CAPE
0 2 22 82 166 317 226 185 100 31 0 0 0 0 0 0 0 0 0 0 0 0 0 0 0 2 23 5 0 0 0 0 0 0 0 0 0 0 0 0 0 6 14
0 0 3 11 92 418 444 298 234 116 13 0 0 0 0 0 0 0 0 0 0 0 0 0 0 0 14 61 65 25 2 13 15 6 0 0 0 0 0 0 0 0 0
0 0 0 39 80 178 314 593 391 314 165 4 0 3 19 40 4 25 24 26 0 0 1 0 0 0 0 4 46 98 82 37 20 19 11 9 6 0 0 0 0 0 0
0 0 0 0 92 61 273 389 449 481 425 269 46 16 156 122 100 77 36 55 95 61 6 10 5 0 0 0 0 31 122 93 59 0 1 19 7 0 0 0 0 0 0
0 0 0 0 0 13 79 315 482 503 539 510 326 136 78 130 160 171 167 126 163 176 128 73 73 82 66 54 16 0 0 16 34 10 0 0 6 19 34 5 0 0 0
0 0 0 0 0 0 16 165 422 495 567 551 550 355 219 198 138 373 370 283 261 256 258 250 229 236 248 251 224 140 78 44 18 2 0 0 0 0 0 0 0 0 0
0 0 0 0 0 0 0 122 318 522 622 630 604 539 369 237 187 254 519 426 363 349 420 471 428 441 484 490 469 409 372 317 198 144 86 45 17 2 0 0 0 0 0
0 0 0 0 0 0 0 95 294 478 660 727 753 681 657 457 242 194 322 524 485 475 464 490 520 529 566 603 613 568 548 479 419 374 328 265 259 214 149 115 73 29 9
0 0 0 0 0 0 0 0 325 551 691 722 894 884 828 665 432 407 391 423 437 438 471 543 523 562 561 584 595 568 556 557 515 478 460 447 480 446 417 369 296 209 142
0 0 0 0 0 0 0 12 281 518 760 796 795 983 958 956 827 496 412 364 594 623 556 564 602 636 634 689 731 741 760 660 680 718 613 697 817 738 669 589 500 420 340
0 0 0 0 0 8 0 0 36 302 413 618 711 848 1070 1058 979 737 484 472 642 699 613 663 892 1174 1443 1414 1302 1250 1268 1216 1225 1184 1021 1113 1297 1254 1144 936 718 593 483
0 0 0 0 0 0 24 7 3 13 24 153 305 707 800 809 771 639 480 169 111 617 1127 1180 1284 1265 1234 1226 1209 1298 1427 1628 1752 1689 1460 1379 1532 1581 1645 1519 1190 873 728
0 0 0 0 0 0 1 67 69 24 92 230 222 240 236 192 215 286 310 294 306 521 915 1180 1273 1362 1443 1452 1499 1639 1854 1892 1853 1858 1684 1678 1749 1622 1708 1795 1710 1386 1007
0 0 0 0 0 0 0 0 28 63 134 124 247 274 317 228 122 91 78 100 158 184 289 431 773 1070 1292 1420 1582 1640 1717 1874 1840 1877 1870 1773 1730 1687 1670 1696 1746 1738 1452
0 0 0 0 0 0 0 0 0 0 0 14 154 198 162 59 57 90 34 7 64 179 298 366 395 532 730 941 1120 1317 1455 1455 1370 1435 1613 1617 1540 1634 1704 1709 1687 1678 1583
0 0 0 0 0 0 0 0 0 0 0 0 0 0 0 133 239 182 158 35 0 0 118 207 295 366 367 485 604 664 774 1072 1250 1196 1145 1148 1252 1346 1420 1569 1709 1520 1484
0 0 0 0 0 3 5 2 0 0 0 0 0 0 0 0 0 0 0 0 0 0 0 0 13 70 154 230 309 366 399 535 841 1098 1300 1196 1276 1339 1360 1333 1443 1524 1377
0 0 0 0 0 0 0 0 0 1 3 0 0 0 0 0 0 0 0 0 0 0 0 0 0 0 0 77 151 221 208 215 234 511 747 1453 1324 1193 1262 1361 1353 1369 1458
0 0 0 0 0 0 0 0 0 0 2 4 0 0 0 0 0 0 0 0 0 0 0 0 0 0 0 9 50 152 49 2 1 1 195 536 686 1295 1201 1200 1097 1108 1139
0 0 0 0 0 0 0 0 0 0 0 0 0 0 0 0 0 0 0 0 0 0 0 0 0 0 0 0 1 33 0 0 0 0 0 0 482 620 740 1119 1078 818 772
0 0 0 0 0 0 0 0 0 0 0 0 0 0 0 0 0 0 0 0 0 0 0 0 0 0 0 0 0 1 0 0 0 0 0 0 5 466 548 502 482 537 595
0 0 0 0 0 0 0 0 0 0 0 0 0 0 0 0 0 0 0 0 0 0 0 0 0 0 0 0 0 0 0 0 0 0 0 0 0 150 370 555 428 445 335
0 0 0 0 0 0 0 0 0 0 0 0 0 0 0 0 0 0 0 0 0 0 0 0 0 0 0 0 0 0 0 0 0 0 0 0 0 79 47 327 522 395 204
0 0 0 0 0 0 0 0 0 0 0 0 0 0 0 0 0 0 0 0 0 0 0 0 0 0 0 0 0 0 0 0 0 0 0 0 0 0 0 26 113 303 229
0 0 0 0 0 0 0 0 0 0 0 0 0 0 0 0 0 0 0 0 0 0 0 0 0 0 0 0 0 0 1 0 0 0 0 0 0 0 0 1 107 216 185
0 0 0 0 0 0 0 0 0 0 0 0 0 0 0 0 0 0 0 0 0 0 0 0 0 0 0 5 0 0 0 0 0 0 0 0 5 36 3 33 158 189 222

GFSMW_con_mucape_246.txt.gz
CAPE
0 0 0 0 11 87 61 76 0 0 0 0 0 0 0 0 0 0 0 0 0 0 0 0 0 0 0 0 0 0 0 0 0 0 0 0 0 0 0 0 0 0 0
0 0 0 0 0 44 96 100 110 6 0 0 0 0 0 0 0 0 0 0 0 0 0 0 0 0 0 0 0 0 0 0 0 0 0 0 0 0 0 0 0 0 0
0 0 0 0 0 4 109 147 168 124 60 3 0 0 0 0 0 0 0 0 0 0 0 0 0 0 0 0 0 0 0 0 0 0 1 1 0 0 0 0 0 0 0
0 0 0 0 0 0 53 164 143 136 251 217 13 0 0 0 0 0 0 0 0 0 0 0 0 0 0 0 0 0 0 0 0 0 0 5 0 0 0 0 0 0 0
0 0 0 0 0 0 0 61 200 169 138 142 314 209 60 0 0 0 0 0 0 0 0 0 0 0 0 0 0 0 0 0 0 0 0 4 10 7 1 0 0 0 0
0 0 0 0 0 0 0 0 54 228 272 217 209 301 332 281 79 21 0 0 0 0 0 0 3 0 0 0 0 0 0 0 0 0 0 0 0 0 0 0 0 0 1
0 0 0 0 0 0 0 0 0 173 360 372 317 305 387 516 506 392 148 17 0 0 0 0 28 34 8 0 0 6 29 44 55 76 63 65 66 49 34 35 59 50 122
5 0 0 0 0 0 0 0 0 6 370 529 531 509 560 617 670 667 517 357 92 50 29 6 0 54 87 75 77 99 141 199 252 263 291 253 264 263 226 201 162 168 233
21 27 23 2 0 0 0 0 32 210 376 564 594 679 677 644 681 702 692 653 470 252 297 233 129 93 115 163 215 241 305 370 396 412 377 365 386 336 345 320 323 293 313
33 24 5 20 26 3 7 91 29 217 514 667 684 756 820 862 822 747 695 634 585 448 344 381 361 328 301 313 329 383 457 446 457 466 459 487 581 709 746 682 692 678 619
12 40 2 0 0 10 19 60 144 207 296 458 687 817 944 1026 1024 906 803 717 683 398 226 311 368 427 421 454 454 533 692 857 1074 1127 1087 1027 1109 1158 1141 1081 1103 1193 1139
0 0 0 0 0 7 67 46 63 98 174 270 295 404 775 959 1098 1190 1197 1143 930 599 214 282 338 360 418 543 811 1024 1067 1001 992 1037 1071 1158 1556 1587 759 819 965 1137 1214
0 0 0 0 0 0 3 31 3 3 0 22 144 376 521 791 994 834 827 484 232 43 58 49 49 111 289 343 989 1233 1288 1449 1623 1575 1503 1342 1350 1300 1281 1400 944 855 1236
0 0 0 0 0 0 0 0 0 0 0 0 1 13 103 171 132 98 94 41 4 27 73 76 38 28 300 634 1135 1370 1396 1242 1204 1240 1179 1131 1276 1459 1505 1518 1281 942 937
0 0 0 0 0 0 0 0 0 0 0 0 0 0 0 0 0 0 0 0 0 0 0 98 290 355 462 574 810 1041 1153 1157 1135 1068 1025 1039 1053 1099 1152 1263 1287 1301 1188
0 0 0 0 0 0 0 0 0 0 0 0 0 0 0 0 0 0 0 0 0 0 0 0 10 62 158 292 361 368 313 404 514 723 822 1644 1385 1153 1246 1178 1006 967 1221
0 0 0 0 0 0 0 0 0 0 0 0 0 0 0 0 0 0 0 0 0 0 0 0 0 0 0 24 129 266 245 221 222 285 407 627 869 851 827 1209 1057 1079 928
0 0 0 0 0 0 0 0 0 0 0 0 0 0 0 0 0 0 0 0 0 0 0 0 0 0 0 0 57 141 105 107 79 48 16 4 56 298 724 805 857 827 1252
0 0 0 0 0 0 0 0 0 0 0 0 0 0 0 0 0 0 0 0 0 0 0 0 0 0 0 0 8 0 0 1 0 0 0 0 0 0 14 127 421 521 613
0 0 0 0 0 0 0 0 0 0 0 0 0 0 0 0 0 0 0 0 0 0 0 0 0 0 0 0 2 12 0 0 0 0 0 0 0 0 0 0 268 463 468
0 0 0 0 0 0 0 0 0 0 0 0 0 0 0 0 0 0 0 0 0 0 0 0 0 0 0 0 0 5 0 0 0 0 0 0 0 0 0 0 22 176 344
0 0 0 0 0 0 0 0 0 0 0 0 0 0 0 0 0 0 0 0 0 0 0 0 0 0 0 0 0 0 0 0 0 0 0 0 0 0 0 0 8 144 259
0 0 0 0 0 0 0 0 0 0 0 0 0 0 0 0 0 0 0 0 0 0 0 0 0 0 0 0 0 0 0 0 0 0 0 0 0 0 0 0 0 22 109
0 0 0 0 0 0 0 0 0 0 0 0 0 0 0 0 0 0 0 0 0 0 0 0 0 0 0 0 0 0 0 0 0 0 0 0 0 0 0 0 0 0 0
0 0 0 0 0 0 0 0 0 0 0 0 0 0 0 0 0 0 0 0 0 0 0 0 0 0 0 0 0 0 0 0 0 0 0 0 0 0 0 0 0 1 0
0 0 0 0 0 0 0 0 0 0 0 0 0 0 0 0 0 0 0 0 0 0 0 0 0 0 0 0 0 0 0 4 0 0 0 0 0 1 0 0 0 1 5